Starlink 35069

operational
NORAD ID: 66268 Int'l Des: 2025-247 Owner: SPXS Country: US Constellation: starlink
NOTLE

About Starlink 35069

Description loading...

Live Position

Loading 3D Globe...

Upcoming Passes

Altitude History

Altitude vs Time

uPlot chart will show altitude changes over time

Two-Line Element Set

1 66268U 25247D 25350.92343202 .00024179 00000-0 61224-3 0 9999
2 66268 53.1587 217.8828 0000981 79.2758 280.8358 15.39635302 8336
Epoch: Dec 16, 2025 • Age: 22 hours

Current Status

Altitude 447.3 km
Velocity 7.65 km/s
Sub-Earth Point 20.37°N, 18.92°W
Launch Date Oct 31, 2025
Age 0.1 years
Type internet

Technical Details

Classification Payload
Mass 575.00 kg
Dry Mass 530.00 kg
Total Mass 575.00 kg
Length 0.30 m
Diameter 4.10 m
Span 29.00 m
Shape Box + pan
Manufacturer SPXS
Bus Type Starlink V2MO
Phase Status In Orbit
Owner/State SPXS/US

Large Constellations

Loading constellations...